Regional Weather Roundup
Issued by NWS Sioux Falls, SD

Home | Current Version | Previous Version | Graphics & Text | Print | Product List | Glossary Off
Versions: 1 2 3 4 5 6 7 8 9 10 11 12 13 14 15 16 17 18 19 20 21 22 23 24 25 26 27 28 29 30 31 32 33 34 35 36 37 38 39 40 41 42 43 44 45 46 47 48 49 50

000
ASUS43 KFSD 240110
RWRFSD

WEATHER ROUNDUP FOR SE SOUTH DAKOTA/SW MINNESOTA/NW IOWA
NATIONAL WEATHER SERVICE SIOUX FALLS SD
800 PM CDT SUN JUL 23 2017

NOTE: "FAIR" INDICATES FEW OR NO CLOUDS BELOW 12,000 FEET WITH NO
SIGNIFICANT WEATHER AND OR OBSTRUCTIONS TO VISIBILITY.


SDZ038>040-050-052>070-240200-
SOUTHEAST SOUTH DAKOTA

CITY           SKY/WX    TMP DP  RH WIND       PRES   REMARKS
BROOKINGS      CLEAR     72  59  63 NE8       30.01
CHAMBERLAIN    SUNNY     85  55  35 NE8       29.98R
HURON          SUNNY     77  60  55 E6        29.98S
MADISON        FAIR      72  66  83 E6        30.01S
MITCHELL       CLEAR     79  59  50 NE7       29.98F
SIOUX FALLS    PTCLDY    75  63  66 NE8       29.99S
WINNER         FAIR      87  51  28 E12       29.98S
YANKTON        CLEAR     78  61  55 NE8       29.98S
$$

MNZ071-072-080-081-089-090-097-098-240200-
SOUTHWEST MINNESOTA

CITY           SKY/WX    TMP DP  RH WIND       PRES   REMARKS
FAIRMONT       CLEAR     72  62  71 N6        29.98S
JACKSON        CLOUDY    72  57  60 CALM      30.00S
LUVERNE        CLEAR     72  55  56 NE7       30.01R
MARSHALL       CLEAR     72  61  68 N3        30.00S
MONTEVIDEO     CLEAR     73  57  56 NE5       29.99S
PIPESTONE      CLEAR     72  59  64 NE5       30.02R
REDWOOD FALLS  CLEAR     75  58  55 N3        29.97S
WINDOM         CLEAR     72  61  68 N5        30.00S
WORTHINGTON    PTCLDY    71  59  65 N6        30.01S
$$

IAZ001>003-012>014-020>022-031-032-NEZ013-014-SDZ071-240200-
NORTHWEST IOWA

CITY           SKY/WX    TMP DP  RH WIND       PRES   REMARKS
CHEROKEE       CLEAR     74  60  59 NE9       29.98R
DENISON        CLEAR     77  63  61 N6        29.97S
ESTHERVILLE    MOCLDY    71  61  70 N7        29.98S
ORANGE CITY    CLEAR     75  61  60 NE5       29.99S
SHELDON        CLEAR     73  61  64 NE8       29.98S
SIOUX CITY       N/A    N/A N/A N/A MISG      29.96R
SPENCER        CLEAR     74  57  55 N9        29.99S
STORM LAKE     CLEAR     73  59  60 N13       29.98S
$$

ABBREVIATIONS USED IN REMARKS
   TC - TEMPERATURE IN CELSIUS
  WCI - WIND CHILL INDEX
   HX - HEAT INDEX
  VSB - VISIBILITY





USA.gov is the U.S. government's official web portal to all federal, state and local government web resources and services.